sat.trackr.live / text

‹ back to catalog

STARLINK-31843

NORAD 59722 · 2024-088Q

PAYLOAD ACTIVE UNKNOWN

§ Identity

Operator
Country
US
Launch date
2024-05-10
Launch site
AFWTR
Launch vehicle
Mass (kg)
RCS (m²)

Purposes: comms

External: N2YO · Heavens-Above · Gunter

§ Orbital elements

Epoch: 2026-09-21T03:54:08.269344Z

Period
94.02 min
Inclination
53.1630°
Eccentricity
0.0001344
Mean motion
15.31659486 rev/d
Perigee alt
469.9 km
Apogee alt
471.8 km
Semi-major
6,849.0 km
B*
2.7601e-4
RAAN
310.9889°
Arg perigee
70.6246°
Mean anomaly
289.4901°
Rev number
13,362

§ Raw data

STARLINK-318431 59722U 24088Q   26264.16259571  .00008198  00000+0  27601-3 0  99972 59722  53.1630 310.9889 0001344  70.6246 289.4901 15.31659486133626

JSON: /api/v1/satellites/59722 · /tle

For live sub-satellite position, see the globe view (requires WebGL).

§ Visibility from observer

Set your observer location to see the next 7 days of passes ≥ 10°. The values pass through the URL so the page stays shareable.

No JS? Fill the form by hand. The geolocation button needs JavaScript.